Year,Month,Day,Hour,Minute,Value (Times are PST for temperature in C)
2007,02,26,00,00,4.90
2007,02,26,00,01,4.90
2007,02,26,00,02,4.90
2007,02,26,00,03,4.90
2007,02,26,00,04,4.90
2007,02,26,00,05,4.90
2007,02,26,00,06,4.90
2007,02,26,00,07,4.90
2007,02,26,00,08,4.90
2007,02,26,00,09,4.90
2007,02,26,00,10,4.90
2007,02,26,00,11,4.90
2007,02,26,00,12,4.90
2007,02,26,00,13,4.90
2007,02,26,00,14,4.90
2007,02,26,00,15,4.90
2007,02,26,00,16,4.90
2007,02,26,00,17,4.90
2007,02,26,00,18,4.90
2007,02,26,00,19,4.90
2007,02,26,00,20,4.90
2007,02,26,00,21,4.90
2007,02,26,00,22,4.90
2007,02,26,00,23,4.90
2007,02,26,00,24,4.90
2007,02,26,00,25,4.90
2007,02,26,00,26,4.90
2007,02,26,00,27,4.90
2007,02,26,00,28,4.90
2007,02,26,00,29,5.00
2007,02,26,00,30,5.00
2007,02,26,00,31,5.10
2007,02,26,00,32,5.10
2007,02,26,00,33,5.10
2007,02,26,00,34,5.10
2007,02,26,00,35,5.10
2007,02,26,00,36,5.10
2007,02,26,00,37,5.10
2007,02,26,00,38,5.10
2007,02,26,00,39,5.10
2007,02,26,00,40,5.10
2007,02,26,00,41,5.10
2007,02,26,00,42,5.10
2007,02,26,00,43,5.10
2007,02,26,00,44,5.10
2007,02,26,00,45,5.10
2007,02,26,00,46,5.10
2007,02,26,00,47,5.10
2007,02,26,00,48,5.10
2007,02,26,00,49,5.10
2007,02,26,00,50,5.10
2007,02,26,00,51,5.20
2007,02,26,00,52,5.20
2007,02,26,00,53,5.20
2007,02,26,00,54,5.20
2007,02,26,00,55,5.20
2007,02,26,00,56,5.20
2007,02,26,00,57,5.20
2007,02,26,00,58,5.30
2007,02,26,00,59,5.30
2007,02,26,01,00,5.30
2007,02,26,01,01,5.20
2007,02,26,01,02,5.20
2007,02,26,01,03,5.20
2007,02,26,01,04,5.20
2007,02,26,01,05,5.20
2007,02,26,01,06,5.20
2007,02,26,01,07,5.20
2007,02,26,01,08,5.20
2007,02,26,01,09,5.20
2007,02,26,01,10,5.20
2007,02,26,01,11,5.20
2007,02,26,01,12,5.30
2007,02,26,01,13,5.30
2007,02,26,01,14,5.30
2007,02,26,01,15,5.30
2007,02,26,01,16,5.30
2007,02,26,01,17,5.30
2007,02,26,01,18,5.30
2007,02,26,01,19,5.30
2007,02,26,01,20,5.30
2007,02,26,01,21,5.30
2007,02,26,01,22,5.30
2007,02,26,01,23,5.30
2007,02,26,01,24,5.30
2007,02,26,01,25,5.30
2007,02,26,01,26,5.30
2007,02,26,01,27,5.30
2007,02,26,01,28,5.30
2007,02,26,01,29,5.30
2007,02,26,01,30,5.30
2007,02,26,01,31,5.30
2007,02,26,01,32,5.30
2007,02,26,01,33,5.30
2007,02,26,01,34,5.30
2007,02,26,01,35,5.30
2007,02,26,01,36,5.30
2007,02,26,01,37,5.30
2007,02,26,01,38,5.30
2007,02,26,01,39,5.30
2007,02,26,01,40,5.30
2007,02,26,01,41,5.30
2007,02,26,01,42,5.30
2007,02,26,01,43,5.30
2007,02,26,01,44,5.30
2007,02,26,01,45,5.30
2007,02,26,01,46,5.30
2007,02,26,01,47,5.30
2007,02,26,01,48,5.30
2007,02,26,01,49,5.30
2007,02,26,01,50,5.30
2007,02,26,01,51,5.30
2007,02,26,01,52,5.30
2007,02,26,01,53,5.30
2007,02,26,01,54,5.30
2007,02,26,01,55,5.40
2007,02,26,01,56,5.40
2007,02,26,01,57,5.40
2007,02,26,01,58,5.40
2007,02,26,01,59,5.40
2007,02,26,02,00,5.40
2007,02,26,02,01,5.40
2007,02,26,02,02,5.40
2007,02,26,02,03,5.40
2007,02,26,02,04,5.40
2007,02,26,02,05,5.40
2007,02,26,02,06,5.40
2007,02,26,02,07,5.40
2007,02,26,02,08,5.40
2007,02,26,02,09,5.40
2007,02,26,02,10,5.40
2007,02,26,02,11,5.40
2007,02,26,02,12,5.40
2007,02,26,02,13,5.40
2007,02,26,02,14,5.40
2007,02,26,02,15,5.40
2007,02,26,02,16,5.40
2007,02,26,02,17,5.40
2007,02,26,02,18,5.30
2007,02,26,02,19,5.30
2007,02,26,02,20,5.30
2007,02,26,02,21,5.30
2007,02,26,02,22,5.30
2007,02,26,02,23,5.30
2007,02,26,02,24,5.30
2007,02,26,02,25,5.30
2007,02,26,02,26,5.30
2007,02,26,02,27,5.30
2007,02,26,02,28,5.30
2007,02,26,02,29,5.30
2007,02,26,02,30,5.30
2007,02,26,02,31,5.30
2007,02,26,02,32,5.30
2007,02,26,02,33,5.30
2007,02,26,02,34,5.30
2007,02,26,02,35,5.30
2007,02,26,02,36,5.30
2007,02,26,02,37,5.30
2007,02,26,02,38,5.30
2007,02,26,02,39,5.30
2007,02,26,02,40,5.30
2007,02,26,02,41,5.30
2007,02,26,02,42,5.30
2007,02,26,02,43,5.30
2007,02,26,02,44,5.30
2007,02,26,02,45,5.30
2007,02,26,02,46,5.30
2007,02,26,02,47,5.30
2007,02,26,02,48,5.30
2007,02,26,02,49,5.30
2007,02,26,02,50,5.30
2007,02,26,02,51,5.30
2007,02,26,02,52,5.30
2007,02,26,02,53,5.30
2007,02,26,02,54,5.30
2007,02,26,02,55,5.30
2007,02,26,02,56,5.30
2007,02,26,02,57,5.30
2007,02,26,02,58,5.30
2007,02,26,02,59,5.20
2007,02,26,03,00,5.30
2007,02,26,03,01,5.30
2007,02,26,03,02,5.30
2007,02,26,03,03,5.30
2007,02,26,03,04,5.30
2007,02,26,03,05,5.30
2007,02,26,03,06,5.30
2007,02,26,03,07,5.30
2007,02,26,03,08,5.30
2007,02,26,03,09,5.30
2007,02,26,03,10,5.30
2007,02,26,03,11,5.30
2007,02,26,03,12,5.30
2007,02,26,03,13,5.30
2007,02,26,03,14,5.30
2007,02,26,03,15,5.30
2007,02,26,03,16,5.30
2007,02,26,03,17,5.30
2007,02,26,03,18,5.30
2007,02,26,03,19,5.30
2007,02,26,03,20,5.30
2007,02,26,03,21,5.30
2007,02,26,03,22,5.30
2007,02,26,03,23,5.30
2007,02,26,03,24,5.20
2007,02,26,03,25,5.20
2007,02,26,03,26,5.20
2007,02,26,03,27,5.20
2007,02,26,03,28,5.20
2007,02,26,03,29,5.20
2007,02,26,03,30,5.20
2007,02,26,03,31,5.10
2007,02,26,03,32,5.10
2007,02,26,03,33,5.10
2007,02,26,03,34,5.10
2007,02,26,03,35,5.10
2007,02,26,03,36,5.10
2007,02,26,03,37,5.10
2007,02,26,03,38,5.10
2007,02,26,03,39,5.10
2007,02,26,03,40,5.00
2007,02,26,03,41,4.90
2007,02,26,03,42,4.90
2007,02,26,03,43,4.90
2007,02,26,03,44,4.90
2007,02,26,03,45,4.90
2007,02,26,03,46,4.90
2007,02,26,03,47,4.90
2007,02,26,03,48,4.90
2007,02,26,03,49,4.90
2007,02,26,03,50,4.90
2007,02,26,03,51,4.90
2007,02,26,03,52,4.90
2007,02,26,03,53,5.00
2007,02,26,03,54,5.10
2007,02,26,03,55,5.10
2007,02,26,03,56,5.10
2007,02,26,03,57,5.10
2007,02,26,03,58,5.10
2007,02,26,03,59,5.30
2007,02,26,04,00,5.30
2007,02,26,04,01,5.30
2007,02,26,04,02,5.30
2007,02,26,04,03,5.40
2007,02,26,04,04,5.40
2007,02,26,04,05,5.40
2007,02,26,04,06,5.40
2007,02,26,04,07,5.40
2007,02,26,04,08,5.40
2007,02,26,04,09,5.40
2007,02,26,04,10,5.40
2007,02,26,04,11,5.40
2007,02,26,04,12,5.40
2007,02,26,04,13,5.40
2007,02,26,04,14,5.40
2007,02,26,04,15,5.40
2007,02,26,04,16,5.40
2007,02,26,04,17,5.40
2007,02,26,04,18,5.30
2007,02,26,04,19,5.30
2007,02,26,04,20,5.30
2007,02,26,04,21,5.30
2007,02,26,04,22,5.30
2007,02,26,04,23,5.30
2007,02,26,04,24,5.30
2007,02,26,04,25,5.30
2007,02,26,04,26,5.30
2007,02,26,04,27,5.30
2007,02,26,04,28,5.30
2007,02,26,04,29,5.40
2007,02,26,04,30,5.40
2007,02,26,04,31,5.40
2007,02,26,04,32,5.30
2007,02,26,04,33,5.30
2007,02,26,04,34,5.30
2007,02,26,04,35,5.30
2007,02,26,04,36,5.30
2007,02,26,04,37,5.30
2007,02,26,04,38,5.30
2007,02,26,04,39,5.30
2007,02,26,04,40,5.30
2007,02,26,04,41,5.30
2007,02,26,04,42,5.30
2007,02,26,04,43,5.30
2007,02,26,04,44,5.30
2007,02,26,04,45,5.30
2007,02,26,04,46,5.30
2007,02,26,04,47,5.30
2007,02,26,04,48,5.30
2007,02,26,04,49,5.30
2007,02,26,04,50,5.30
2007,02,26,04,51,5.30
2007,02,26,04,52,5.30
2007,02,26,04,53,5.30
2007,02,26,04,54,5.30
2007,02,26,04,55,5.30
2007,02,26,04,56,5.30
2007,02,26,04,57,5.30
2007,02,26,04,58,5.30
2007,02,26,04,59,5.30
2007,02,26,05,00,5.30
2007,02,26,05,01,5.30
2007,02,26,05,02,5.20
2007,02,26,05,03,5.20
2007,02,26,05,04,5.20
2007,02,26,05,05,5.20
2007,02,26,05,06,5.20
2007,02,26,05,07,5.20
2007,02,26,05,08,5.20
2007,02,26,05,09,5.10
2007,02,26,05,10,5.10
2007,02,26,05,11,5.10
2007,02,26,05,12,5.10
2007,02,26,05,13,5.10
2007,02,26,05,14,5.10
2007,02,26,05,15,5.10
2007,02,26,05,16,5.10
2007,02,26,05,17,5.10
2007,02,26,05,18,5.10
2007,02,26,05,19,5.10
2007,02,26,05,20,5.10
2007,02,26,05,21,5.10
2007,02,26,05,22,5.10
2007,02,26,05,23,5.10
2007,02,26,05,24,5.10
2007,02,26,05,25,5.10
2007,02,26,05,26,5.10
2007,02,26,05,27,5.10
2007,02,26,05,28,5.10
2007,02,26,05,29,5.10
2007,02,26,05,30,5.10
2007,02,26,05,31,5.20
2007,02,26,05,32,5.20
2007,02,26,05,33,5.20
2007,02,26,05,34,5.10
2007,02,26,05,35,5.10
2007,02,26,05,36,5.10
2007,02,26,05,37,5.20
2007,02,26,05,38,5.20
2007,02,26,05,39,5.20
2007,02,26,05,40,5.20
2007,02,26,05,41,5.20
2007,02,26,05,42,5.20
2007,02,26,05,43,5.20
2007,02,26,05,44,5.20
2007,02,26,05,45,5.10
2007,02,26,05,46,5.10
2007,02,26,05,47,5.10
2007,02,26,05,48,5.10
2007,02,26,05,49,5.10
2007,02,26,05,50,5.10
2007,02,26,05,51,5.10
2007,02,26,05,52,5.10
2007,02,26,05,53,5.10
2007,02,26,05,54,5.10
2007,02,26,05,55,5.10
2007,02,26,05,56,5.10
2007,02,26,05,57,5.10
2007,02,26,05,58,5.10
2007,02,26,05,59,5.10
2007,02,26,06,00,5.10
2007,02,26,06,01,5.10
2007,02,26,06,02,5.10
2007,02,26,06,03,5.00
2007,02,26,06,04,4.90
2007,02,26,06,05,4.90
2007,02,26,06,06,4.90
2007,02,26,06,07,4.90
2007,02,26,06,08,4.90
2007,02,26,06,09,4.90
2007,02,26,06,10,4.90
2007,02,26,06,11,4.90
2007,02,26,06,12,4.90
2007,02,26,06,13,4.80
2007,02,26,06,14,4.80
2007,02,26,06,15,4.80
2007,02,26,06,16,4.80
2007,02,26,06,17,4.80
2007,02,26,06,18,4.70
2007,02,26,06,19,4.70
2007,02,26,06,20,4.70
2007,02,26,06,21,4.70
2007,02,26,06,22,4.70
2007,02,26,06,23,4.70
2007,02,26,06,24,4.70
2007,02,26,06,25,4.70
2007,02,26,06,26,4.70
2007,02,26,06,27,4.70
2007,02,26,06,28,4.70
2007,02,26,06,29,4.70
2007,02,26,06,30,4.70
2007,02,26,06,31,4.70
2007,02,26,06,32,4.70
2007,02,26,06,33,4.80
2007,02,26,06,34,4.80
2007,02,26,06,35,4.80
2007,02,26,06,36,4.70
2007,02,26,06,37,4.70
2007,02,26,06,38,4.70
2007,02,26,06,39,4.60
2007,02,26,06,40,4.60
2007,02,26,06,41,4.70
2007,02,26,06,42,4.70
2007,02,26,06,43,4.70
2007,02,26,06,44,4.70
2007,02,26,06,45,4.70
2007,02,26,06,46,4.70
2007,02,26,06,47,4.60
2007,02,26,06,48,4.60
2007,02,26,06,49,4.60
2007,02,26,06,50,4.60
2007,02,26,06,51,4.60
2007,02,26,06,52,4.60
2007,02,26,06,53,4.60
2007,02,26,06,54,4.60
2007,02,26,06,55,4.50
2007,02,26,06,56,4.50
2007,02,26,06,57,4.50
2007,02,26,06,58,4.50
2007,02,26,06,59,4.60
2007,02,26,07,00,4.60
2007,02,26,07,01,4.60
2007,02,26,07,02,4.60
2007,02,26,07,03,4.70
2007,02,26,07,04,4.70
2007,02,26,07,05,4.70
2007,02,26,07,06,4.70
2007,02,26,07,07,4.70
2007,02,26,07,08,4.80
2007,02,26,07,09,4.80
2007,02,26,07,10,4.80
2007,02,26,07,11,4.80
2007,02,26,07,12,4.80
2007,02,26,07,13,4.80
2007,02,26,07,14,4.90
2007,02,26,07,15,4.90
2007,02,26,07,16,4.90
2007,02,26,07,17,4.90
2007,02,26,07,18,4.90
2007,02,26,07,19,4.90
2007,02,26,07,20,4.90
2007,02,26,07,21,5.00
2007,02,26,07,22,5.10
2007,02,26,07,23,5.10
2007,02,26,07,24,5.10
2007,02,26,07,25,5.00
2007,02,26,07,26,4.90
2007,02,26,07,27,4.90
2007,02,26,07,28,4.90
2007,02,26,07,29,4.90
2007,02,26,07,30,4.90
2007,02,26,07,31,4.90
2007,02,26,07,32,4.90
2007,02,26,07,33,4.90
2007,02,26,07,34,4.90
2007,02,26,07,35,4.90
2007,02,26,07,36,4.90
2007,02,26,07,37,4.90
2007,02,26,07,38,4.90
2007,02,26,07,39,4.90
2007,02,26,07,40,4.90
2007,02,26,07,41,4.90
2007,02,26,07,42,4.90
2007,02,26,07,43,4.90
2007,02,26,07,44,5.00
2007,02,26,07,45,5.10
2007,02,26,07,46,5.10
2007,02,26,07,47,5.10
2007,02,26,07,48,5.10
2007,02,26,07,49,5.10
2007,02,26,07,50,5.10
2007,02,26,07,51,5.10
2007,02,26,07,52,5.10
2007,02,26,07,53,5.10
2007,02,26,07,54,5.10
2007,02,26,07,55,5.10
2007,02,26,07,56,5.10
2007,02,26,07,57,5.10
2007,02,26,07,58,5.10
2007,02,26,07,59,5.10
2007,02,26,08,00,5.10
2007,02,26,08,01,5.10
2007,02,26,08,02,5.10
2007,02,26,08,03,5.10
2007,02,26,08,04,5.10
2007,02,26,08,05,5.10
2007,02,26,08,06,5.10
2007,02,26,08,07,5.10
2007,02,26,08,08,5.10
2007,02,26,08,09,5.10
2007,02,26,08,10,5.10
2007,02,26,08,11,5.10
2007,02,26,08,12,5.10
2007,02,26,08,13,5.10
2007,02,26,08,14,5.10
2007,02,26,08,15,5.10
2007,02,26,08,16,5.10
2007,02,26,08,17,5.10
2007,02,26,08,18,5.10
2007,02,26,08,19,5.10
2007,02,26,08,20,5.10
2007,02,26,08,21,5.10
2007,02,26,08,22,5.10
2007,02,26,08,23,5.10
2007,02,26,08,24,5.10
2007,02,26,08,25,5.10
2007,02,26,08,26,5.10
2007,02,26,08,27,5.10
2007,02,26,08,28,5.10
2007,02,26,08,29,5.10
2007,02,26,08,30,5.10
2007,02,26,08,31,5.20
2007,02,26,08,32,5.20
2007,02,26,08,33,5.20
2007,02,26,08,34,5.20
2007,02,26,08,35,5.20
2007,02,26,08,36,5.20
2007,02,26,08,37,5.20
2007,02,26,08,38,5.20
2007,02,26,08,39,5.20
2007,02,26,08,40,5.20
2007,02,26,08,41,5.30
2007,02,26,08,42,5.30
2007,02,26,08,43,5.30
2007,02,26,08,44,5.30
2007,02,26,08,45,5.30
2007,02,26,08,46,5.30
2007,02,26,08,47,5.30
2007,02,26,08,48,5.30
2007,02,26,08,49,5.30
2007,02,26,08,50,5.40
2007,02,26,08,51,5.40
2007,02,26,08,52,5.40
2007,02,26,08,53,5.50
2007,02,26,08,54,5.50
2007,02,26,08,55,5.50
2007,02,26,08,56,5.50
2007,02,26,08,57,5.60
2007,02,26,08,58,5.60
2007,02,26,08,59,5.60
2007,02,26,09,00,5.60
2007,02,26,09,01,5.60
2007,02,26,09,02,5.60
2007,02,26,09,03,5.70
2007,02,26,09,04,5.70
2007,02,26,09,05,5.70
2007,02,26,09,06,5.70
2007,02,26,09,07,5.70
2007,02,26,09,08,5.70
2007,02,26,09,09,5.70
2007,02,26,09,10,5.70
2007,02,26,09,11,5.70
2007,02,26,09,12,5.70
2007,02,26,09,13,5.70
2007,02,26,09,14,5.80
2007,02,26,09,15,5.80
2007,02,26,09,16,5.80
2007,02,26,09,17,5.80
2007,02,26,09,18,5.80
2007,02,26,09,19,5.80
2007,02,26,09,20,5.90
2007,02,26,09,21,5.90
2007,02,26,09,22,5.80
2007,02,26,09,23,5.90
2007,02,26,09,24,5.90
2007,02,26,09,25,5.90
2007,02,26,09,26,5.90
2007,02,26,09,27,5.90
2007,02,26,09,28,5.90
2007,02,26,09,29,5.90
2007,02,26,09,30,5.90
2007,02,26,09,31,6.00
2007,02,26,09,32,6.00
2007,02,26,09,33,6.00
2007,02,26,09,34,6.00
2007,02,26,09,35,6.00
2007,02,26,09,36,6.00
2007,02,26,09,37,6.00
2007,02,26,09,38,6.10
2007,02,26,09,39,6.10
2007,02,26,09,40,6.10
2007,02,26,09,41,6.10
2007,02,26,09,42,6.10
2007,02,26,09,43,6.10
2007,02,26,09,44,6.10
2007,02,26,09,45,6.20
2007,02,26,09,46,6.20
2007,02,26,09,47,6.20
2007,02,26,09,48,6.20
2007,02,26,09,49,6.20
2007,02,26,09,50,6.20
2007,02,26,09,51,6.20
2007,02,26,09,52,6.20
2007,02,26,09,53,6.20
2007,02,26,09,54,6.20
2007,02,26,09,55,6.20
2007,02,26,09,56,6.20
2007,02,26,09,57,6.20
2007,02,26,09,58,6.20
2007,02,26,09,59,6.20
2007,02,26,10,00,6.20
2007,02,26,10,01,6.20
2007,02,26,10,02,6.20
2007,02,26,10,03,6.20
2007,02,26,10,04,6.20
2007,02,26,10,05,6.20
2007,02,26,10,06,6.20
2007,02,26,10,07,6.20
2007,02,26,10,08,6.20
2007,02,26,10,09,6.20
2007,02,26,10,10,6.20
2007,02,26,10,11,6.20
2007,02,26,10,12,6.20
2007,02,26,10,13,6.20
2007,02,26,10,14,6.20
2007,02,26,10,15,6.20
2007,02,26,10,16,6.20
2007,02,26,10,17,6.30
2007,02,26,10,18,6.30
2007,02,26,10,19,6.40
2007,02,26,10,20,6.40
2007,02,26,10,21,6.50
2007,02,26,10,22,6.60
2007,02,26,10,23,6.80
2007,02,26,10,24,6.90
2007,02,26,10,25,7.10
2007,02,26,10,26,7.20
2007,02,26,10,27,7.30
2007,02,26,10,28,7.40
2007,02,26,10,29,7.40
2007,02,26,10,30,7.40
2007,02,26,10,31,7.50
2007,02,26,10,32,7.50
2007,02,26,10,33,7.50
2007,02,26,10,34,7.50
2007,02,26,10,35,7.50
2007,02,26,10,36,7.50
2007,02,26,10,37,7.50
2007,02,26,10,38,7.60
2007,02,26,10,39,7.70
2007,02,26,10,40,7.70
2007,02,26,10,41,7.80
2007,02,26,10,42,7.80
2007,02,26,10,43,7.80
2007,02,26,10,44,7.90
2007,02,26,10,45,7.90
2007,02,26,10,46,7.90
2007,02,26,10,47,7.90
2007,02,26,10,48,7.90
2007,02,26,10,49,8.00
2007,02,26,10,50,8.00
2007,02,26,10,51,8.00
2007,02,26,10,52,8.00
2007,02,26,10,53,8.00
2007,02,26,10,54,8.00
2007,02,26,10,55,8.00
2007,02,26,10,56,8.00
2007,02,26,10,57,8.00
2007,02,26,10,58,8.00
2007,02,26,10,59,7.90
2007,02,26,11,00,7.80
2007,02,26,11,01,7.80
2007,02,26,11,02,7.80
2007,02,26,11,03,7.80
2007,02,26,11,04,7.80
2007,02,26,11,05,7.70
2007,02,26,11,06,7.70
2007,02,26,11,07,7.70
2007,02,26,11,08,7.70
2007,02,26,11,09,7.60
2007,02,26,11,10,7.60
2007,02,26,11,11,7.70
2007,02,26,11,12,7.70
2007,02,26,11,13,7.70
2007,02,26,11,14,7.70
2007,02,26,11,15,7.60
2007,02,26,11,16,7.60
2007,02,26,11,17,7.60
2007,02,26,11,18,7.60
2007,02,26,11,19,7.50
2007,02,26,11,20,7.40
2007,02,26,11,21,7.40
2007,02,26,11,22,7.40
2007,02,26,11,23,7.40
2007,02,26,11,24,7.40
2007,02,26,11,25,7.40
2007,02,26,11,26,7.40
2007,02,26,11,27,7.40
2007,02,26,11,28,7.40
2007,02,26,11,29,7.40
2007,02,26,11,30,7.40
2007,02,26,11,31,7.30
2007,02,26,11,32,7.30
2007,02,26,11,33,7.30
2007,02,26,11,34,7.30
2007,02,26,11,35,7.30
2007,02,26,11,36,7.30
2007,02,26,11,37,7.40
2007,02,26,11,38,7.40
2007,02,26,11,39,7.40
2007,02,26,11,40,7.30
2007,02,26,11,41,7.30
2007,02,26,11,42,7.30
2007,02,26,11,43,7.30
2007,02,26,11,44,7.40
2007,02,26,11,45,7.40
2007,02,26,11,46,7.40
2007,02,26,11,47,7.40
2007,02,26,11,48,7.40
2007,02,26,11,49,7.40
2007,02,26,11,50,7.50
2007,02,26,11,51,7.50
2007,02,26,11,52,7.50
2007,02,26,11,53,7.60
2007,02,26,11,54,7.70
2007,02,26,11,55,7.80
2007,02,26,11,56,7.90
2007,02,26,11,57,7.90
2007,02,26,11,58,8.10
2007,02,26,11,59,8.20
2007,02,26,12,00,8.30
2007,02,26,12,01,8.40
2007,02,26,12,02,8.40
2007,02,26,12,03,8.50
2007,02,26,12,04,8.50
2007,02,26,12,05,8.50
2007,02,26,12,06,8.50
2007,02,26,12,07,8.50
2007,02,26,12,08,8.70
2007,02,26,12,09,8.70
2007,02,26,12,10,8.80
2007,02,26,12,11,8.90
2007,02,26,12,12,8.90
2007,02,26,12,13,9.00
2007,02,26,12,14,8.90
2007,02,26,12,15,8.90
2007,02,26,12,16,8.80
2007,02,26,12,17,8.90
2007,02,26,12,18,8.90
2007,02,26,12,19,8.70
2007,02,26,12,20,8.60
2007,02,26,12,21,8.60
2007,02,26,12,22,8.60
2007,02,26,12,23,8.70
2007,02,26,12,24,8.80
2007,02,26,12,25,8.80
2007,02,26,12,26,8.70
2007,02,26,12,27,8.90
2007,02,26,12,28,8.90
2007,02,26,12,29,8.90
2007,02,26,12,30,8.90
2007,02,26,12,31,8.90
2007,02,26,12,32,8.90
2007,02,26,12,33,8.90
2007,02,26,12,34,8.90
2007,02,26,12,35,8.90
2007,02,26,12,36,8.80
2007,02,26,12,37,8.70
2007,02,26,12,38,8.80
2007,02,26,12,39,8.90
2007,02,26,12,40,8.90
2007,02,26,12,41,8.90
2007,02,26,12,42,8.90
2007,02,26,12,43,8.90
2007,02,26,12,44,8.80
2007,02,26,12,45,8.80
2007,02,26,12,46,8.80
2007,02,26,12,47,8.90
2007,02,26,12,48,9.00
2007,02,26,12,49,9.00
2007,02,26,12,50,9.00
2007,02,26,12,51,9.00
2007,02,26,12,52,9.00
2007,02,26,12,53,9.10
2007,02,26,12,54,9.00
2007,02,26,12,55,9.00
2007,02,26,12,56,8.90
2007,02,26,12,57,8.80
2007,02,26,12,58,8.70
2007,02,26,12,59,8.80
2007,02,26,13,00,8.80
2007,02,26,13,01,8.70
2007,02,26,13,02,8.70
2007,02,26,13,03,8.80
2007,02,26,13,04,8.80
2007,02,26,13,05,8.90
2007,02,26,13,06,9.00
2007,02,26,13,07,8.90
2007,02,26,13,08,8.80
2007,02,26,13,09,8.80
2007,02,26,13,10,9.00
2007,02,26,13,11,8.90
2007,02,26,13,12,8.90
2007,02,26,13,13,8.80
2007,02,26,13,14,8.70
2007,02,26,13,15,8.70
2007,02,26,13,16,8.70
2007,02,26,13,17,8.70
2007,02,26,13,18,8.70
2007,02,26,13,19,8.80
2007,02,26,13,20,8.90
2007,02,26,13,21,8.80
2007,02,26,13,22,8.70
2007,02,26,13,23,8.70
2007,02,26,13,24,8.80
2007,02,26,13,25,8.90
2007,02,26,13,26,8.90
2007,02,26,13,27,9.00
2007,02,26,13,28,9.00
2007,02,26,13,29,9.00
2007,02,26,13,30,9.00
2007,02,26,13,31,9.00
2007,02,26,13,32,9.10
2007,02,26,13,33,9.00
2007,02,26,13,34,9.00
2007,02,26,13,35,8.90
2007,02,26,13,36,8.90
2007,02,26,13,37,8.90
2007,02,26,13,38,8.90
2007,02,26,13,39,8.80
2007,02,26,13,40,8.70
2007,02,26,13,41,8.70
2007,02,26,13,42,8.70
2007,02,26,13,43,8.60
2007,02,26,13,44,8.50
2007,02,26,13,45,8.40
2007,02,26,13,46,8.30
2007,02,26,13,47,8.30
2007,02,26,13,48,8.20
2007,02,26,13,49,8.20
2007,02,26,13,50,8.20
2007,02,26,13,51,8.20
2007,02,26,13,52,8.20
2007,02,26,13,53,8.20
2007,02,26,13,54,8.20
2007,02,26,13,55,8.10
2007,02,26,13,56,8.00
2007,02,26,13,57,8.00
2007,02,26,13,58,8.00
2007,02,26,13,59,7.90
2007,02,26,14,00,7.80
2007,02,26,14,01,7.80
2007,02,26,14,02,7.70
2007,02,26,14,03,7.70
2007,02,26,14,04,7.60
2007,02,26,14,05,7.60
2007,02,26,14,06,7.60
2007,02,26,14,07,7.60
2007,02,26,14,08,7.60
2007,02,26,14,09,7.50
2007,02,26,14,10,7.40
2007,02,26,14,11,7.40
2007,02,26,14,12,7.40
2007,02,26,14,13,7.50
2007,02,26,14,14,7.50
2007,02,26,14,15,7.50
2007,02,26,14,16,7.40
2007,02,26,14,17,7.40
2007,02,26,14,18,7.40
2007,02,26,14,19,7.40
2007,02,26,14,20,7.30
2007,02,26,14,21,7.30
2007,02,26,14,22,7.30
2007,02,26,14,23,7.30
2007,02,26,14,24,7.30
2007,02,26,14,25,7.30
2007,02,26,14,26,7.30
2007,02,26,14,27,7.30
2007,02,26,14,28,7.30
2007,02,26,14,29,7.20
2007,02,26,14,30,7.20
2007,02,26,14,31,7.10
2007,02,26,14,32,7.10
2007,02,26,14,33,7.20
2007,02,26,14,34,7.20
2007,02,26,14,35,7.20
2007,02,26,14,36,7.20
2007,02,26,14,37,7.10
2007,02,26,14,38,7.10
2007,02,26,14,39,7.10
2007,02,26,14,40,7.20
2007,02,26,14,41,7.20
2007,02,26,14,42,7.10
2007,02,26,14,43,7.10
2007,02,26,14,44,7.00
2007,02,26,14,45,7.00
2007,02,26,14,46,6.90
2007,02,26,14,47,6.80
2007,02,26,14,48,6.80
2007,02,26,14,49,6.80
2007,02,26,14,50,6.80
2007,02,26,14,51,6.80
2007,02,26,14,52,6.80
2007,02,26,14,53,6.80
2007,02,26,14,54,6.80
2007,02,26,14,55,6.80
2007,02,26,14,56,6.80
2007,02,26,14,57,6.80
2007,02,26,14,58,6.80
2007,02,26,14,59,6.80
2007,02,26,15,00,6.80
2007,02,26,15,01,6.80
2007,02,26,15,02,6.80
2007,02,26,15,03,6.80
2007,02,26,15,04,6.80
2007,02,26,15,05,6.80
2007,02,26,15,06,6.80
2007,02,26,15,07,6.80
2007,02,26,15,08,6.80
2007,02,26,15,09,6.80
2007,02,26,15,10,6.80
2007,02,26,15,11,6.80
2007,02,26,15,12,6.80
2007,02,26,15,13,6.70
2007,02,26,15,14,6.70
2007,02,26,15,15,6.70
2007,02,26,15,16,6.60
2007,02,26,15,17,6.60
2007,02,26,15,18,6.60
2007,02,26,15,19,6.60
2007,02,26,15,20,6.60
2007,02,26,15,21,6.60
2007,02,26,15,22,6.60
2007,02,26,15,23,6.60
2007,02,26,15,24,6.60
2007,02,26,15,25,6.60
2007,02,26,15,26,6.60
2007,02,26,15,27,6.60
2007,02,26,15,28,6.60
2007,02,26,15,29,6.60
2007,02,26,15,30,6.60
2007,02,26,15,31,6.60
2007,02,26,15,32,6.60
2007,02,26,15,33,6.60
2007,02,26,15,34,6.50
2007,02,26,15,35,6.40
2007,02,26,15,36,6.40
2007,02,26,15,37,6.40
2007,02,26,15,38,6.30
2007,02,26,15,39,6.30
2007,02,26,15,40,6.30
2007,02,26,15,41,6.30
2007,02,26,15,42,6.30
2007,02,26,15,43,6.30
2007,02,26,15,44,6.30
2007,02,26,15,45,6.30
2007,02,26,15,46,6.20
2007,02,26,15,47,6.20
2007,02,26,15,48,6.20
2007,02,26,15,49,6.20
2007,02,26,15,50,6.20
2007,02,26,15,51,6.20
2007,02,26,15,52,6.20
2007,02,26,15,53,6.20
2007,02,26,15,54,6.20
2007,02,26,15,55,6.30
2007,02,26,15,56,6.30
2007,02,26,15,57,6.30
2007,02,26,15,58,6.30
2007,02,26,15,59,6.40
2007,02,26,16,00,6.40
2007,02,26,16,01,6.50
2007,02,26,16,02,6.60
2007,02,26,16,03,6.60
2007,02,26,16,04,6.60
2007,02,26,16,05,6.60
2007,02,26,16,06,6.60
2007,02,26,16,07,6.60
2007,02,26,16,08,6.60
2007,02,26,16,09,6.60
2007,02,26,16,10,6.70
2007,02,26,16,11,6.80
2007,02,26,16,12,6.80
2007,02,26,16,13,6.80
2007,02,26,16,14,6.80
2007,02,26,16,15,6.90
2007,02,26,16,16,6.90
2007,02,26,16,17,6.90
2007,02,26,16,18,7.00
2007,02,26,16,19,7.00
2007,02,26,16,20,7.10
2007,02,26,16,21,7.30
2007,02,26,16,22,7.40
2007,02,26,16,23,7.50
2007,02,26,16,24,7.60
2007,02,26,16,25,7.70
2007,02,26,16,26,7.80
2007,02,26,16,27,7.80
2007,02,26,16,28,7.80
2007,02,26,16,29,7.80
2007,02,26,16,30,7.90
2007,02,26,16,31,7.90
2007,02,26,16,32,7.90
2007,02,26,16,33,7.90
2007,02,26,16,34,7.90
2007,02,26,16,35,7.80
2007,02,26,16,36,7.80
2007,02,26,16,37,7.90
2007,02,26,16,38,7.90
2007,02,26,16,39,7.90
2007,02,26,16,40,7.90
2007,02,26,16,41,7.90
2007,02,26,16,42,7.90
2007,02,26,16,43,7.90
2007,02,26,16,44,7.80
2007,02,26,16,45,7.80
2007,02,26,16,46,7.80
2007,02,26,16,47,7.80
2007,02,26,16,48,7.80
2007,02,26,16,49,7.80
2007,02,26,16,50,7.80
2007,02,26,16,51,7.80
2007,02,26,16,52,7.80
2007,02,26,16,53,7.80
2007,02,26,16,54,7.80
2007,02,26,16,55,7.80
2007,02,26,16,56,7.80
2007,02,26,16,57,7.90
2007,02,26,16,58,7.90
2007,02,26,16,59,8.00
2007,02,26,17,00,8.10
2007,02,26,17,01,8.20
2007,02,26,17,02,8.20
2007,02,26,17,03,8.20
2007,02,26,17,04,8.20
2007,02,26,17,05,8.20
2007,02,26,17,06,8.20
2007,02,26,17,07,8.20
2007,02,26,17,08,8.10
2007,02,26,17,09,8.00
2007,02,26,17,10,7.90
2007,02,26,17,11,7.80
2007,02,26,17,12,7.70
2007,02,26,17,13,7.60
2007,02,26,17,14,7.50
2007,02,26,17,15,7.40
2007,02,26,17,16,7.30
2007,02,26,17,17,7.20
2007,02,26,17,18,7.10
2007,02,26,17,19,7.10
2007,02,26,17,20,7.00
2007,02,26,17,21,6.90
2007,02,26,17,22,6.80
2007,02,26,17,23,6.80
2007,02,26,17,24,6.70
2007,02,26,17,25,6.70
2007,02,26,17,26,6.60
2007,02,26,17,27,6.60
2007,02,26,17,28,6.50
2007,02,26,17,29,6.40
2007,02,26,17,30,6.30
2007,02,26,17,31,6.30
2007,02,26,17,32,6.30
2007,02,26,17,33,6.20
2007,02,26,17,34,6.20
2007,02,26,17,35,6.20
2007,02,26,17,36,6.30
2007,02,26,17,37,6.30
2007,02,26,17,38,6.20
2007,02,26,17,39,6.20
2007,02,26,17,40,6.20
2007,02,26,17,41,6.20
2007,02,26,17,42,6.20
2007,02,26,17,43,6.20
2007,02,26,17,44,6.20
2007,02,26,17,45,6.20
2007,02,26,17,46,6.10
2007,02,26,17,47,6.10
2007,02,26,17,48,6.10
2007,02,26,17,49,6.10
2007,02,26,17,50,6.10
2007,02,26,17,51,6.00
2007,02,26,17,52,6.00
2007,02,26,17,53,6.00
2007,02,26,17,54,5.90
2007,02,26,17,55,5.90
2007,02,26,17,56,5.90
2007,02,26,17,57,5.80
2007,02,26,17,58,5.80
2007,02,26,17,59,5.70
2007,02,26,18,00,5.70
2007,02,26,18,01,5.70
2007,02,26,18,02,5.70
2007,02,26,18,03,5.70
2007,02,26,18,04,5.70
2007,02,26,18,05,5.70
2007,02,26,18,06,5.70